This demonstration page uses our WeatherBlox Daily Observations layout. Learn more.

Left ArrowRight Arrow

39.95238, -75.16362

Hourly Observations for April 20, 2022

Temp ( °F °C ) Dew Point ( °F °C ) Humidity (%) Winds ( mph kmh ) Pressure ( in mb ) Visibility ( mi km ) Precip ( " mm )
12:54 am 00:54 Clear 43 6.1 27 -2.8 53 53 W 13 20 30.16 1021 10 16 0.00 0.00
1:54 am 01:54 Mostly Clear 42 5.6 27 -2.8 55 55 W 12 19 30.18 1022 10 16 0.00 0.00
2:54 am 02:54 Mostly Clear 40 4.4 27 -2.8 60 60 W 10 17 30.21 1023 10 16 0.00 0.00
3:54 am 03:54 Mostly Clear 39 3.9 26 -3.3 60 60 W 10 17 30.23 1024 10 16 0.00 0.00
4:54 am 04:54 Mostly Clear 39 3.9 26 -3.3 60 60 W 9 15 30.27 1025 10 16 0.00 0.00
5:54 am 05:54 Mostly Clear 38 3.3 26 -3.3 62 62 W 10 17 30.30 1026 10 16 0.00 0.00
6:54 am 06:54 Sunny 39 3.9 26 -3.3 60 60 W 12 19 30.33 1027 10 16 0.00 0.00
7:54 am 07:54 Sunny 43 6.1 26 -3.3 51 51 WNW 14 22 30.36 1028 10 16 0.00 0.00
8:54 am 08:54 Mostly Sunny 46 7.8 27 -2.8 47 47 WNW 14 22 30.38 1029 10 16 0.00 0.00
9:54 am 09:54 Mostly Sunny 48 8.9 28 -2.2 46 46 NW 16 26 30.37 1029 10 16 0.00 0.00
10:54 am 10:54 Partly Cloudy 51 10.6 27 -2.8 39 39 NW 14 22 30.37 1029 10 16 0.00 0.00
11:54 am 11:54 Partly Cloudy 53 11.7 27 -2.8 37 37 NNW 9 15 30.38 1029 10 16 0.00 0.00
12:54 pm 12:54 Partly Cloudy 54 12.2 29 -1.7 38 38 W 10 17 30.38 1029 10 16 0.00 0.00
1:54 pm 13:54 Partly Cloudy 56 13.3 29 -1.7 36 36 WNW 8 13 30.39 1029 10 16 0.00 0.00
2:54 pm 14:54 Partly Cloudy 57 13.9 28 -2.2 33 33 NW 10 17 30.39 1029 10 16 0.00 0.00
3:54 pm 15:54 Partly Cloudy 58 14.4 28 -2.2 32 32 NW 10 17 30.38 1029 10 16 0.00 0.00
4:54 pm 16:54 Partly Cloudy 59 15 28 -2.2 31 31 W 9 15 30.39 1029 10 16 0.00 0.00
5:54 pm 17:54 Partly Cloudy 60 15.6 27 -2.8 28 28 WNW 8 13 30.40 1029 10 16 0.00 0.00
6:54 pm 18:54 Partly Cloudy 58 14.4 26 -3.3 29 29 W 6 9 30.40 1030 10 16 0.00 0.00
7:54 pm 19:54 Partly Cloudy 54 12.2 28 -2.2 37 37 W 5 7 30.43 1030 10 16 0.00 0.00
8:54 pm 20:54 Partly Cloudy 53 11.7 27 -2.8 37 37 VRB 3 6 30.44 1031 10 16 0.00 0.00
9:54 pm 21:54 Partly Cloudy 52 11.1 30 -1.1 43 43 Calm 30.46 1032 10 16 0.00 0.00
10:54 pm 22:54 Partly Cloudy 48 8.9 29 -1.7 48 48 SSE 7 11 30.47 1032 10 16 0.00 0.00
11:54 pm 23:54 Partly Cloudy 44 6.7 29 -1.7 55 55 SE 6 9 30.48 1032 10 16 0.00 0.00

Powered by AerisWeather